Regional Weather Roundup
Issued by NWS Raleigh/Durham, NC

Home | Current Version | Previous Version | Text Only | Print | Product List | Glossary On
Versions: 1 2 3 4 5 6 7 8 9 10 11 12 13 14 15 16 17 18 19 20 21 22 23 24 25 26 27 28 29 30 31 32 33 34 35 36 37 38 39 40 41 42 43 44 45 46 47 48 49 50
000
ASUS42 KRAH 280410
RWRRAH
NORTH CAROLINA WEATHER ROUNDUP
NATIONAL WEATHER SERVICE RALEIGH NC
1100 PM EST MON FEB 27 2017

NOTE: "FAIR" INDICATES FEW OR NO CLOUDS BELOW 12,000 FEET WITH NO
SIGNIFICANT WEATHER AND/OR OBSTRUCTIONS TO VISIBILITY.

NCZ001-053-055-056-065-067-280500-
WESTERN NORTH CAROLINA

CITY           SKY/WX    TMP DP  RH WIND       PRES   REMARKS
ASHEVILLE      CLOUDY    52  32  46 SE3       30.31F
JEFFERSON      CLOUDY    43  29  59 CALM      30.31F
MORGANTON      CLOUDY    48  36  62 CALM      30.37S
HICKORY        CLOUDY    51  30  44 NW3       30.31F
RUTHERFORDTON  CLOUDY    52  31  45 CALM      30.32F
MOUNT AIRY     CLOUDY    50  36  59 CALM      30.35S
BOONE          PTCLDY    42  29  58 CALM      30.32F
$$

NCZ021-022-025-041-071-084-088-280500-
CENTRAL NORTH CAROLINA

CITY           SKY/WX    TMP DP  RH WIND       PRES   REMARKS
CHARLOTTE      CLOUDY    60  28  29 E6        30.32S
GREENSBORO     CLOUDY    54  30  40 SE3       30.32F
WINSTON-SALEM  CLOUDY    54  26  34 CALM      30.33F
RALEIGH-DURHAM CLOUDY    58  42  55 SE8       30.35F
FORT BRAGG     CLOUDY    57  46  68 E3        30.34R
FAYETTEVILLE     N/A    N/A N/A N/A MISG        N/A
BURLINGTON     CLOUDY    52  32  46 CALM      30.33F
LAURINBURG     CLOUDY    55  48  77 NE3       30.34R
$$

NCZ011-015-027-028-043-044-047-080-103-280500-
NORTHEASTERN NORTH CAROLINA

CITY           SKY/WX    TMP DP  RH WIND       PRES   REMARKS
ROCKY MT-WILSO CLOUDY    57  48  72 SE3       30.36F
GREENVILLE     CLOUDY    55  46  71 CALM      30.37F
WASHINGTON     CLEAR     54  48  81 CALM      30.38F
ELIZABETH CITY CLOUDY    54  49  83 E5        30.39F
MANTEO         PTCLDY    58  54  87 SE6       30.39F
CAPE HATTERAS  PTCLDY    69  52  54 S17       30.38S
$$

NCZ078-087-090-091-093-098-101-280500-
SOUTHEASTERN NORTH CAROLINA

CITY           SKY/WX    TMP DP  RH WIND       PRES   REMARKS
LUMBERTON      PTCLDY    57  50  77 CALM      30.32R
GOLDSBORO      CLOUDY    55  52  88 E3        30.33F
KENANSVILLE    CLOUDY    57  50  77 E3        30.35R
NEW BERN       CLEAR     55  51  86 E7        30.35F
CHERRY POINT   PTCLDY    55  49  80 E5        30.36F
BEAUFORT       CLOUDY    65  57  75 SE5       30.36F
JACKSONVILLE   CLOUDY    58  54  86 E8        30.32F
WILMINGTON     CLOUDY    64  54  69 SE8       30.31F
$$




USA.gov is the U.S. government's official web portal to all federal, state and local government web resources and services.